EW6987 Weather Reports


time (UTC)temp
C
wind
direction
speed
KPH
gust
KPH
rain 1hr
cm
rain 24hr
cm
rain mn
cm
humidity
%
barometer
mb
20260903060058 25 115 0.0 4.8 0.00 0.00 0.00 79 1013.7
20260903054557 25 127 0.0 3.2 0.00 0.00 0.00 80 1013.9
20260903053053 25 44 3.2 12.9 0.00 0.00 0.00 78 1014.0
20260903051549 27 76 8.0 19.3 0.00 0.00 0.00 78 1013.9
20260903050044 27 203 1.6 11.3 0.00 0.00 0.00 83 1012.7
20260903044543 27 186 4.8 12.9 0.00 0.00 0.00 83 1012.5
20260903043044 27 230 1.6 11.3 0.00 0.00 0.00 82 1012.2
20260903041543 27 188 3.2 11.3 0.00 0.00 0.00 81 1012.2
20260903040036 27 233 1.6 14.5 0.00 0.00 0.00 81 1012.1
20260903034542 27 210 6.4 16.1 0.00 0.00 0.00 81 1012.0
20260903033034 27 211 6.4 17.7 0.00 0.00 0.00 80 1011.8
20260903031534 27 224 6.4 17.7 0.00 0.00 0.00 80 1011.4
20260903030033 28 185 8.0 19.3 0.00 0.00 0.00 79 1011.3
20260903024530 28 214 8.0 22.5 0.00 0.00 0.00 78 1011.8
20260903023029 28 233 8.0 19.3 0.00 0.00 0.00 78 1012.1
20260903021528 28 131 3.2 11.3 0.00 0.00 0.00 77 1012.2
20260903020054 28 198 4.8 12.9 0.00 0.00 0.00 76 1012.2
20260903014511 28 212 4.8 11.3 0.00 0.00 0.00 76 1012.2
20260903013053 28 216 4.8 9.7 0.00 0.00 0.00 76 1012.3
20260903011557 28 181 3.2 9.7 0.00 0.00 0.00 75 1012.4
20260903010052 28 235 4.8 11.3 0.00 0.00 0.00 75 1012.2
20260903004551 28 200 4.8 9.7 0.00 0.00 0.00 74 1012.1
20260903003049 29 193 3.2 8.0 0.00 0.00 0.00 74 1012.1
20260903001551 30 177 4.8 8.0 0.00 0.00 0.00 72 1012.2
20260903000050 30 167 0.0 8.0 0.00 0.00 0.00 70 1012.2
20260902234559 31 243 4.8 12.9 0.00 0.00 0.00 67 1012.1
20260902233047 31 202 4.8 17.7 0.00 0.00 0.00 65 1011.9
20260902231545 32 235 4.8 16.1 0.00 0.00 0.00 64 1012.0
20260902230048 32 221 4.8 16.1 0.00 0.00 0.00 63 1011.9
20260902224545 32 295 6.4 14.5 0.00 0.00 0.00 61 1011.7
20260902223043 32 179 4.8 11.3 0.00 0.00 0.00 60 1011.7
20260902221540 33 251 6.4 14.5 0.00 0.00 0.00 60 1011.9
20260902220041 33 244 9.7 22.5 0.00 0.00 0.00 57 1012.2
20260902214538 33 219 8.0 19.3 0.00 0.00 0.00 58 1012.3
20260902213037 34 179 4.8 19.3 0.00 0.00 0.00 56 1012.3
20260902211535 33 254 4.8 22.5 0.00 0.00 0.00 56 1012.5
20260902210034 33 238 6.4 17.7 0.00 0.00 0.00 57 1012.6
20260902204531 34 187 4.8 19.3 0.00 0.00 0.00 57 1012.7
20260902203030 33 228 11.3 17.7 0.00 0.00 0.00 56 1012.9
20260902201529 34 229 8.0 20.9 0.00 0.00 0.00 57 1013.0
20260902200026 34 190 6.4 20.9 0.00 0.00 0.00 56 1013.1
20260902194525 34 305 6.4 17.7 0.00 0.00 0.00 56 1013.2
20260902193022 34 268 6.4 19.3 0.00 0.00 0.00 58 1013.4
20260902191520 34 257 4.8 16.1 0.00 0.00 0.00 61 1013.4
20260902190025 33 241 8.0 20.9 0.00 0.00 0.00 60 1013.7
20260902184515 33 207 8.0 19.3 0.00 0.00 0.00 60 1013.9
20260902183015 33 250 9.7 17.7 0.00 0.00 0.00 61 1013.9
20260902181611 33 202 4.8 20.9 0.00 0.00 0.00 63 1014.0
20260902180009 33 272 9.7 19.3 0.00 0.00 0.00 60 1014.2
20260902174508 33 213 8.0 17.7 0.00 0.00 0.00 62 1014.4
20260902173006 32 231 6.4 12.9 0.00 0.00 0.00 64 1014.6
20260902171503 32 167 8.0 14.5 0.00 0.00 0.00 65 1014.7
20260902170002 32 247 8.0 14.5 0.00 0.00 0.00 66 1014.9
20260902164601 32 269 4.8 14.5 0.00 0.00 0.00 69 1015.2
20260902163057 31 233 8.0 14.5 0.00 0.00 0.00 70 1015.2
20260902161555 31 160 6.4 11.3 0.00 0.00 0.00 71 1015.3
20260902160112 31 197 4.8 12.9 0.00 0.00 0.00 70 1015.2
20260902154556 30 198 4.8 12.9 0.00 0.00 0.00 71 1015.3
20260902153049 30 195 3.2 12.9 0.00 0.00 0.00 72 1015.2
20260902151544 30 226 3.2 12.9 0.00 0.00 0.00 74 1015.2
20260902150040 29 188 3.2 9.7 0.00 0.00 0.00 75 1015.1
20260902144540 29 181 1.6 11.3 0.00 0.00 0.00 77 1015.0
20260902143035 28 243 4.8 11.3 0.00 0.00 0.00 78 1015.0
20260902141530 28 198 6.4 11.3 0.00 0.00 0.00 80 1015.0
20260902140035 27 241 4.8 17.7 0.00 0.00 0.00 81 1015.1
20260902134526 27 199 6.4 12.9 0.00 0.00 0.00 82 1014.9
20260902133022 26 281 4.8 16.1 0.00 0.00 0.00 84 1015.0
20260902131517 26 172 8.0 17.7 0.00 0.00 0.00 86 1014.9
20260902130015 26 202 4.8 16.1 0.00 0.00 0.00 88 1015.0
20260902124512 25 222 6.4 12.9 0.00 0.00 0.00 89 1015.1
20260902123021 25 224 6.4 14.5 0.00 0.00 0.00 90 1015.0
20260902121509 25 255 3.2 11.3 0.00 0.00 0.00 90 1014.9
20260902120009 25 210 1.6 9.7 0.00 0.00 0.00 91 1014.9
20260902114505 25 189 1.6 8.0 0.00 0.00 0.00 92 1014.7
20260902113005 24 212 3.2 8.0 0.00 0.00 0.00 92 1014.6
20260902111511 24 176 1.6 8.0 0.00 0.00 0.00 91 1014.4
20260902110012 25 250 4.8 11.3 0.00 0.00 0.00 91 1014.5
20260902104502 25 191 4.8 11.3 0.00 0.00 0.00 91 1014.4
20260902103002 25 226 4.8 12.9 0.00 0.00 0.00 91 1014.3
20260902101501 25 150 4.8 11.3 0.00 0.00 0.00 91 1014.3
20260902100001 24 217 4.8 11.3 0.00 0.00 0.00 91 1014.4
20260902094600 24 231 6.4 12.9 0.00 0.00 0.00 92 1014.4
20260902093059 24 226 4.8 9.7 0.00 0.00 0.00 92 1014.3
20260902091601 24 200 3.2 9.7 0.00 0.00 0.00 92 1014.4
20260902090059 24 151 4.8 9.7 0.00 0.00 0.00 92 1014.4
20260902084602 25 179 4.8 11.3 0.00 0.00 0.00 91 1014.3
20260902083106 25 164 4.8 11.3 0.00 0.00 0.00 91 1014.3
20260902081556 25 172 4.8 8.0 0.00 0.00 0.00 92 1014.3
20260902080112 25 178 3.2 6.4 0.00 0.00 0.00 92 1014.3
20260902074554 24 173 1.6 6.4 0.00 0.00 0.00 91 1014.3
20260902073053 25 185 3.2 8.0 0.00 0.00 0.00 91 1014.1
20260902071552 25 164 3.2 9.7 0.00 0.00 0.00 90 1014.1
20260902070051 25 181 3.2 8.0 0.00 0.00 0.00 90 1014.1
20260902064551 25 161 1.6 8.0 0.00 0.00 0.00 89 1014.2
20260902063051 25 183 0.0 8.0 0.00 0.00 0.00 89 1014.2